Lexington Weather

Lexington, Massachusetts, USA

36°F
1/27/2020 7:44am 
  • Lexington Conditions: Overcast
  • Temperature: 36.3°F / 2.4°CWarmer 0.2°F than last hour.
  • Dew Point: 31.3°FDecreased 0.2°Fsince last hour.
  • Relative Humidity: 82%Decreased 1.0% since last hour.
  • Wind: Wind from SW SW 2 mph, 10-min avg: 2 mph, gust: 8 mph
  • Barometer: 29.57 in Steady
  • Visibility: 10 miles
  • Rain Today: 0.00 in
  •   

Regional Weather Roundup
for Boston / Norton, MA

        
000
ASUS41 KBOX 241400
RWRBOX

REGIONAL WEATHER ROUNDUP
NATIONAL WEATHER SERVICE BOSTON/NORTON MA
900 AM EST FRI JAN 24 2020

NOTE:  "FAIR" INDICATES FEW OR NO CLOUDS BELOW 12,000 FEET WITH NO 
SIGNIFICANT WEATHER AND/OR OBSTRUCTIONS TO VISIBILITY.

MAZALL-241500-
EASTERN MASSACHUSETTS
  
CITY           SKY/WX    TMP DP  RH WIND       PRES   REMARKS
BOSTON         PTSUNNY   38  24  57 N6        30.42R                  
BEVERLY        FAIR      34  22  61 N5        30.42R WCI  30          
LAWRENCE       FAIR      30  17  58 NE5       30.44R WCI  25          
BEDFORD        FAIR      29  18  63 CALM      30.42R                  
BLUE HILL        N/A     34  24  67 N7        30.38R WCI  28          
NORWOOD        FAIR      37  22  54 CALM      30.42R                  
MARSHFIELD     NOT AVBL                                               
PLYMOUTH       FAIR      34  26  72 CALM      30.40R                  
TAUNTON        FAIR      32  25  75 CALM      30.40R                  
NEW BEDFORD    FAIR      36  21  54 N5        30.40R                  
$$

MAZALL-241500-
CAPE COD AND THE ISLANDS
  
CITY           SKY/WX    TMP DP  RH WIND       PRES   REMARKS
FALMOUTH       SUNNY     34  27  75 MISG      30.39R                  
HYANNIS        NOT AVBL                                               
CHATHAM        FAIR      36  34  92 CALM      30.41R                  
PROVINCETOWN   FAIR      37  35  92 CALM      30.41R                  
NANTUCKET      FAIR      40  39  97 CALM      30.40R                  
MARTHAS VNYRD  FAIR      38  32  79 CALM      30.40R                  
$$
 
MAZALL-241500-
CENTRAL AND WESTERN MASSACHUSETTS
  
CITY           SKY/WX    TMP DP  RH WIND       PRES   REMARKS
WORCESTER      FAIR      35  11  36 N12       30.38R WCI  27          
FITCHBURG      FAIR      29  18  63 CALM      30.42R                  
ORANGE         FAIR      22  19  89 CALM      30.42R                  
SPRINGFIELD    MOSUNNY   25  20  81 NE6       30.41R WCI  18          
WESTFIELD      FAIR      26  19  74 N3        30.41S                  
NORTH ADAMS    FAIR      22  17  81 CALM      30.39S                  
PITTSFIELD     FAIR      26  18  71 CALM      30.34S                  
$$
 
RIZALL-241500-
RHODE ISLAND
  
CITY           SKY/WX    TMP DP  RH WIND       PRES   REMARKS
PROVIDENCE     FAIR      37  19  48 N6        30.41R                  
NEWPORT        FAIR      37  22  54 N6        30.39R                  
BLOCK ISLAND   FAIR      39  24  55 N5        30.41R                  
SMITHFIELD     FAIR      35  17  47 NE9       30.40R WCI  28          
WESTERLY       FAIR      38  25  59 CALM      30.40S                  
$$
 
CTZALL-241500-
CONNECTICUT
  
CITY           SKY/WX    TMP DP  RH WIND       PRES   REMARKS
BRADLEY INTL   FAIR      31  20  63 CALM      30.41S                  
HARTFORD       FAIR      31  21  66 NE5       30.42S WCI  26          
BRIDGEPORT     FAIR      36  24  62 N3        30.41R                  
DANBURY        PTSUNNY   29  24  82 CALM      30.41R                  
GROTON         NOT AVBL                                               
NEW HAVEN      FAIR      37  23  56 N9        30.39S WCI  30          
CHESTER        NOT AVBL                                               
MERIDEN        FAIR      32  23  69 CALM      30.42R                  
WILLIMANTIC    FAIR      27  20  75 CALM      30.42R                  
OXFORD         FAIR      33  20  58 CALM      30.39R                  
$$

MEZ002-015-021-024-NHZ003-005-008-011-012-014-VTZ005-008-241500-
NORTHERN NEW ENGLAND
  
CITY           SKY/WX    TMP DP  RH WIND       PRES   REMARKS
PORTLAND ME    PTSUNNY   34  19  54 N6        30.46R WCI  29          
BANGOR ME      PTSUNNY   23  18  81 CALM      30.49R                  
CONCORD NH     FAIR      26  18  71 NW3       30.44R                  
MANCHESTER NH  PTSUNNY   29  17  61 N3        30.42R                  
NASHUA NH      FAIR      28  20  71 NW6       30.44R WCI  22          
PORTSMOUTH NH  MOSUNNY   34  19  52 N5        30.42R WCI  30          
JAFFREY NH     FAIR      24  21  88 CALM      30.39R                  
KEENE NH       FAIR      24  20  84 CALM      30.43S                  
BURLINGTON VT  CLOUDY    25  20  81 CALM      30.40R                  
MT. WASHINGTON PTSUNNY   30   0  27 S10         N/A  WCI  21          
$$

NYZ052-076-241500-
EASTERN NEW YORK
  
CITY           SKY/WX    TMP DP  RH WIND       PRES   REMARKS
ALBANY         PTSUNNY   24  17  74 NW3       30.42R                  
NEW YORK CITY  FAIR      38  31  76 NE9       30.39R WCI  31          
$$
 
ANZALL-241500-
MARINE OBSERVATIONS
  
STATION/POSITION TIME  TEMP    WIND        PRES    VSBY  WAVE
                       AIR SEA DIR/SP/G                  HT/PER
                 (UTC) (F)     (DEG/KT/KT) (MB)    (MI)  (FT/S)
BOSTON BUOY      1250   40 43  360/  6/  8 1028.6          3/11
BUZZARDS BAY     1300   37     350/  7/  7 1029.4R
NANTUCKET SOUND  1300                      1029.0R
MASS BAY-STELLWA 1304   40 42   20/  4/  6 1027.5R  1 7/8  3/11
ISLE OF SHOALS   1300   38      20/ 14/ 15 1029.5R
S OF BLOCK IS    1330      45                N/A           4/ 9
$$

......................KEY.........................
  SKY/WX - SKY CONDITION/PRESENT WEATHER
  TMP    - TEMPERATURE IN FAHRENHEIT
  DWPT   - DEWPOINT IN FAHRENHEIT
  RH     - RELATIVE HUMIDITY IN PERCENT
  WIND   - DIRECTION AND SPEED IN MPH
  PRES   - MEAN SEA LEVEL PRESSURE IN INCHES OF HG
  WCI    - WIND CHILL INDEX
  VSB    - VISIBILITY IN MILES
  HX     - HEAT INDEX
  TC     - TEMPERATURE IN CELSIUS
  VRB    - VARIABLE WIND DIRECTION
  N/A    - NOT AVAILABLE
  
      

Other recent Regional Weather Roundups

Mon Jan 27, 7:10am

Mon Jan 27, 7:00am

Mon Jan 27, 6:10am

Mon Jan 27, 6:00am

Mon Jan 27, 5:10am

Mon Jan 27, 5:00am

Mon Jan 27, 4:10am

Mon Jan 27, 4:01am

Mon Jan 27, 3:10am

Mon Jan 27, 3:00am

Mon Jan 27, 2:10am

Mon Jan 27, 2:00am

Mon Jan 27, 1:10am

Mon Jan 27, 1:00am

Mon Jan 27, 12:10am

Mon Jan 27, 12:00am

Sun Jan 26, 11:10pm

Sun Jan 26, 11:00pm

Sun Jan 26, 10:10pm

Sun Jan 26, 10:00pm

Sun Jan 26, 9:10pm

Sun Jan 26, 9:01pm

Sun Jan 26, 8:10pm

Sun Jan 26, 8:00pm

Sun Jan 26, 7:10pm

Sun Jan 26, 7:00pm

Sun Jan 26, 6:10pm

Sun Jan 26, 6:01pm

Sun Jan 26, 5:10pm

Sun Jan 26, 5:01pm

Sun Jan 26, 4:10pm

Sun Jan 26, 4:00pm

Sun Jan 26, 3:10pm

Sun Jan 26, 3:01pm

Sun Jan 26, 2:10pm

Sun Jan 26, 2:01pm

Sun Jan 26, 1:10pm

Sun Jan 26, 1:00pm

Sun Jan 26, 12:10pm

Sun Jan 26, 12:00pm

Sun Jan 26, 11:10am

Sun Jan 26, 11:01am

Sun Jan 26, 10:10am

Sun Jan 26, 10:01am

Sun Jan 26, 9:10am

Sun Jan 26, 9:00am

Sun Jan 26, 8:10am

Sun Jan 26, 8:00am

Sun Jan 26, 7:10am

Sun Jan 26, 7:00am

Sun Jan 26, 6:10am

Sun Jan 26, 6:00am

Sun Jan 26, 5:10am

Sun Jan 26, 5:00am

Sun Jan 26, 4:10am

Sun Jan 26, 4:01am

Sun Jan 26, 3:10am

Sun Jan 26, 3:01am

Sun Jan 26, 2:10am

Sun Jan 26, 2:00am

Sun Jan 26, 1:10am

Sun Jan 26, 1:00am

Sun Jan 26, 12:10am

Sun Jan 26, 12:00am

Sat Jan 25, 11:10pm

Sat Jan 25, 11:00pm

Sat Jan 25, 10:10pm

Sat Jan 25, 10:01pm

Sat Jan 25, 9:10pm

Sat Jan 25, 9:01pm

Sat Jan 25, 8:10pm

Sat Jan 25, 8:01pm

Sat Jan 25, 7:10pm

Sat Jan 25, 7:01pm

Sat Jan 25, 6:10pm

Sat Jan 25, 6:01pm

Sat Jan 25, 5:10pm

Sat Jan 25, 5:01pm

Sat Jan 25, 4:10pm

Sat Jan 25, 4:00pm

Sat Jan 25, 3:10pm

Sat Jan 25, 3:01pm

Sat Jan 25, 2:10pm

Sat Jan 25, 2:00pm

Sat Jan 25, 1:10pm

Sat Jan 25, 1:00pm

Sat Jan 25, 12:10pm

Sat Jan 25, 12:00pm

Sat Jan 25, 11:10am

Sat Jan 25, 11:00am

Sat Jan 25, 10:10am

Sat Jan 25, 10:00am

Sat Jan 25, 9:10am

Sat Jan 25, 9:00am

Sat Jan 25, 8:10am

Sat Jan 25, 8:01am

Sat Jan 25, 7:10am

Sat Jan 25, 7:00am

Sat Jan 25, 6:10am

Sat Jan 25, 6:00am

Sat Jan 25, 5:10am

Sat Jan 25, 5:00am

Sat Jan 25, 4:10am

Sat Jan 25, 4:00am

Sat Jan 25, 3:10am

Sat Jan 25, 3:00am

Sat Jan 25, 2:10am

Sat Jan 25, 2:01am

Sat Jan 25, 1:10am

Sat Jan 25, 1:00am

Sat Jan 25, 12:10am

Sat Jan 25, 12:00am

Fri Jan 24, 11:10pm

Fri Jan 24, 11:00pm

Fri Jan 24, 10:10pm

Fri Jan 24, 10:00pm

Fri Jan 24, 9:10pm

Fri Jan 24, 9:00pm

Fri Jan 24, 8:10pm

Fri Jan 24, 8:01pm

Fri Jan 24, 7:10pm

Fri Jan 24, 7:00pm

Fri Jan 24, 6:10pm

Fri Jan 24, 6:01pm

Fri Jan 24, 5:10pm

Fri Jan 24, 5:01pm

Fri Jan 24, 4:10pm

Fri Jan 24, 4:00pm

Fri Jan 24, 3:10pm

Fri Jan 24, 3:00pm

Fri Jan 24, 2:10pm

Fri Jan 24, 2:01pm

Fri Jan 24, 1:10pm

Fri Jan 24, 1:00pm

Fri Jan 24, 12:10pm

Fri Jan 24, 12:01pm

Fri Jan 24, 11:10am

Fri Jan 24, 11:01am

Fri Jan 24, 10:10am

Fri Jan 24, 10:00am

Fri Jan 24, 9:10am

Fri Jan 24, 8:10am

Fri Jan 24, 8:01am

Meta data:

ID: 89b85033-769f-45d9-8711-3fb73f559cc2
Link: https://api.weather.gov/products/89b85033-769f-45d9-8711-3fb73f559cc2